STARLINK-3057, 49139

Orbit data source: Space-Track

STARLINK-3057, 49139 is a payload satellite owned by SpaceX/Seattle (US) in LEO that was launched on Tue, 14 Sep 2021 UTC via an FALCON 9 launch vehicle from the Air Force Western Test Range (AFWTR). Payload-class satellites include a variety of spacecraft equipped with specific instruments for various scientific and technological missions. These include communications satellites like Starlink; space stations such as the ISS; scientific satellites like the Hubble; Earth observation satellites from companies like Planet Labs, Umbra, and HawkEye 360; GPS; miniature CubeSats for education and research; and military/defense satellites.

Loading next visibility...
Identifier
49139, 2021-082K
Orbit
LEO
Country
Flag of USUS
Related business
Manufacturer
SpaceX/Seattle
Mission
Operational Commercial Communications
Bus & Motor
STARLINK, Unknown motor
Mass
297 kg wet, ~275 kg dry
Launch date (UTC)
2021-09-14 (4 years ago)
Launch vehicle
FALCON 9
Launch site
Air Force Western Test Range (AFWTR)
Object type
Payload
Rocket body
Debris
Shape & HBR
Box + 1 Pan, 10.1 m
Radar Cross Section
13.562 m², Large (>1 m²)

Expand to show TLE details & history
Last TLE update: 17 hours ago

TLE from 17 hours ago
0 STARLINK-3057
1 49139U 21082K   26071.75107472  .00000120  00000-0  17821-4 0  9994
2 49139  69.9984 246.7220 0002770 270.1982  89.8859 14.98329349247429
Epoch: 2026-03-12T18:01Z
TLE epoch observation values (Epoch: 2026-03-12T18:01:32.855Z)
Latitude
-0.0001°
Longitude
165.9386°
Altitude
574.478 km
Speed
7.574 km/s
True Right ascension
16h 26m 53s
True Declination
0° 00' 00"
Sunlit
Object was in daylight at epoch
Visualization orbit readout
Latitude
Unknown
Longitude
Unknown
Altitude
Unknown
Speed
Unknown
Apparent Right ascension
Unknown
Apparent Declination
Unknown
Sunlit
N/A
Visualization observer readout
Local Sidereal Time
15:13:24
Azimuth
Unknown
Elevation
Unknown
Doppler factor
Unknown
Orbital elements
Apogee altitude
571.931 km
Perigee altitude
568.082 km
Semi-major axis
6,948.143 km
Eccentricity
0.00028
Inclination
69.9984°
RAAN
246.722°
Arg. of periapsis
270.1982°
True anomaly
89.91764°
Mean anomaly
89.8859°
Eccentric anomaly
89.90177°
Mean motion
3.74749 °/min
Orbital period
96.06 mins
BSTAR
0.000017821
Loading maneuver chart data...
Computing Atmospheric mass density...

Documentation

Showing up to 5 results
|